Weather History for Truth Or Consequences, NM

Change the Weather History Date:

Thursday, November 7, 2013

  Actual Average Record
Temperature  
Mean Temperature 8 °C -  
Max Temperature 17 °C 19 °C 26 °C (2012)
Min Temperature -1 °C 4 °C -2 °C (2000)
Degree Days  
Heating Degree Days 18    
Month to date heating degree days 87  
Since 1 July heating degree days 260  
Moisture  
Dew Point -10 °C    
Average Humidity 30    
Maximum Humidity 47    
Minimum Humidity 12    
Precipitation  
Precipitation 0.00 mm - 0.66 mm (2000)
Month to date precipitation 0.03  
Year to date precipitation 11.29  
Sea Level Pressure  
Sea Level Pressure 1026 hPa    
Wind  
Wind Speed 9 km/h (NW)    
Max Wind Speed 16 km/h    
Max Gust Speed 24 km/h    
Visibility 16 kilometers    
Events      
T = Trace of Precipitation, MM = Missing Value Source: NWS Daily Summary

Daily Weather History Graph

Daily Weather History Graph

Search for Another Location

Airport:

Trip Planner

Search our weather history database for the weather conditions in past years. The results will help you decide how hot, cold, wet, or windy it might be!

Date:

Astronomy

Nov. 07, 2013 Rise Set
Actual Time 6:33 AM MST 5:12 PM MST
Civil Twilight 6:07 AM MST 5:37 PM MST
Nautical Twilight 5:37 AM MST 6:07 PM MST
Astronomical Twilight 5:08 AM MST 6:36 PM MST
Moon 10:41 AM MST (11/7) 9:28 PM MST (11/7)
Length of Visible Light 11h 30m
Length of Day
10h 39m
Waxing Crescent, 23% of the Moon is Illuminated
Nov 7
Waxing Crescent
Nov 9
First Quarter
Nov 17
Full
Nov 25
Last Quarter
Dec 2
New

Hourly Weather History & Observations

Time (MST) Temp. Windchill Dew Point Humidity Pressure Visibility Wind Dir Wind Speed Gust Speed Precip Events Conditions
12:53 AM 3.9 °C 1.5 °C -11.7 °C 32% 1026.9 hPa 16.1 km NNW 9.3 km/h / 2.6 m/s - N/A   Clear
1:53 AM 2.8 °C -0.2 °C -11.7 °C 34% 1026.6 hPa 16.1 km NNW 11.1 km/h / 3.1 m/s - N/A   Clear
2:53 AM 0.6 °C -2.8 °C -11.1 °C 42% 1027.0 hPa 16.1 km NW 11.1 km/h / 3.1 m/s - N/A   Clear
3:53 AM 1.7 °C 0.1 °C -11.7 °C 37% 1026.9 hPa 16.1 km NNW 5.6 km/h / 1.5 m/s - N/A   Clear
4:53 AM 2.2 °C -0.5 °C -11.7 °C 36% 1028.0 hPa 16.1 km NNW 9.3 km/h / 2.6 m/s - N/A   Clear
5:53 AM -0.6 °C -3.2 °C -11.1 °C 46% 1029.7 hPa 16.1 km NW 7.4 km/h / 2.1 m/s - N/A   Clear
6:53 AM 1.1 °C -2.2 °C -11.1 °C 40% 1029.5 hPa 16.1 km NW 11.1 km/h / 3.1 m/s - N/A   Clear
7:53 AM 5.0 °C 3.3 °C -10.6 °C 32% 1029.8 hPa 16.1 km NNW 7.4 km/h / 2.1 m/s - N/A   Clear
8:53 AM 8.3 °C - -8.9 °C 29% 1029.8 hPa 16.1 km North 7.4 km/h / 2.1 m/s - N/A   Clear
9:53 AM 11.7 °C - -8.3 °C 24% 1029.2 hPa 16.1 km NE 13.0 km/h / 3.6 m/s - N/A   Clear
10:53 AM 12.8 °C - -8.3 °C 23% 1028.6 hPa 16.1 km NE 9.3 km/h / 2.6 m/s - N/A   Clear
11:53 AM 15.0 °C - -8.9 °C 19% 1026.7 hPa 16.1 km ENE 11.1 km/h / 3.1 m/s - N/A   Clear
12:53 PM 16.1 °C - -9.4 °C 17% 1025.2 hPa 16.1 km NNE 7.4 km/h / 2.1 m/s - N/A   Clear
1:53 PM 16.1 °C - -12.2 °C 13% 1024.5 hPa 16.1 km Variable 9.3 km/h / 2.6 m/s - N/A   Clear
2:53 PM 16.7 °C - -12.8 °C 12% 1023.7 hPa 16.1 km South 9.3 km/h / 2.6 m/s - N/A   Clear
3:53 PM 16.7 °C - -12.2 °C 13% 1022.9 hPa 16.1 km Calm Calm - N/A   Clear
4:53 PM 16.1 °C - -11.1 °C 15% 1022.8 hPa 16.1 km SW 9.3 km/h / 2.6 m/s - N/A   Clear
5:53 PM 13.3 °C - -9.4 °C 20% 1023.8 hPa 16.1 km Calm Calm - N/A   Clear
6:53 PM 10.6 °C - -8.3 °C 26% 1024.2 hPa 16.1 km Calm Calm - N/A   Clear
7:53 PM 8.3 °C - -8.3 °C 30% 1024.0 hPa 16.1 km WNW 13.0 km/h / 3.6 m/s - N/A   Clear
8:53 PM 7.2 °C 4.8 °C -9.4 °C 30% 1023.7 hPa 16.1 km WNW 13.0 km/h / 3.6 m/s - N/A   Clear
9:53 PM 6.7 °C 4.5 °C -8.3 °C 34% 1023.1 hPa 16.1 km West 11.1 km/h / 3.1 m/s - N/A   Clear
10:53 PM 6.7 °C 4.2 °C -7.8 °C 35% 1022.8 hPa 16.1 km West 13.0 km/h / 3.6 m/s - N/A   Clear
11:53 PM 5.0 °C 2.8 °C -7.2 °C 41% 1022.2 hPa 16.1 km West 9.3 km/h / 2.6 m/s - N/A   Clear